Station Historical Data
Daily Summary for August 24, 2017 Units:  English    Metric   Both
« Previous Day
Next Day »
Daily Weekly Monthly Yearly Custom
  High: Low: Average:
Temperature: TemperatureF °F 69.0 °F 76.1 °F
Dew Point: DewpointF °F 44.6 °F 49.3 °F
Humidity: Humidity % 25 % 40 %
Wind Speed: WindSpeedMPH mph 0.0 mph 2.9 mph
Wind Gust: WindSpeedGustMPH mph - -
Wind:- - SE
Pressure: PressureIn in 29.77 in -
Precipitation: 0.00 in    
Historical Graphs
 
 
Tabular Data for August 24, 2017
Time Temperature Dew Point Pressure Wind Wind Speed Wind Gust Humidity Rainfall Rate (Hourly) solar
TemperatureF °F DewpointF °F PressureIn in Calm     Humidity % HourlyPrecipIn in SolarRadiationWatts/m^2 W/m2
00:04 73.2 °F 51.8 °F 29.85 in ESE 7.0 mph 11.0 mph 47 % 0.00 in 0.00 W/m2
00:09 73.2 °F 51.8 °F 29.85 in ESE 5.0 mph 11.0 mph 47 % 0.00 in 0.00 W/m2
00:14 73.1 °F 51.7 °F 29.85 in East 2.0 mph 12.0 mph 47 % 0.00 in 0.00 W/m2
00:19 73.0 °F 51.6 °F 29.85 in East 5.0 mph 9.0 mph 47 % 0.00 in 0.00 W/m2
00:24 73.0 °F 51.0 °F 29.84 in ESE 1.0 mph 13.0 mph 46 % 0.00 in 0.00 W/m2
00:29 72.9 °F 50.9 °F 29.85 in East 1.0 mph 9.0 mph 46 % 0.00 in 0.00 W/m2
00:31 72.9 °F 50.9 °F 29.85 in ESE 5.0 mph 11.0 mph 46 % 0.00 in 0.00 W/m2
00:35 72.8 °F 50.8 °F 29.85 in ESE 6.0 mph 9.0 mph 46 % 0.00 in 0.00 W/m2
00:40 72.8 °F 50.8 °F 29.85 in East 8.0 mph 9.0 mph 46 % 0.00 in 0.00 W/m2
00:46 72.7 °F 50.8 °F 29.84 in East 4.0 mph 11.0 mph 46 % 0.00 in 0.00 W/m2
00:51 72.7 °F 50.8 °F 29.85 in East 8.0 mph 11.0 mph 46 % 0.00 in 0.00 W/m2
00:56 72.6 °F 50.7 °F 29.84 in East 2.0 mph 4.0 mph 46 % 0.00 in 0.00 W/m2
01:01 72.6 °F 50.7 °F 29.84 in ESE 6.0 mph 6.0 mph 46 % 0.00 in 0.00 W/m2
01:06 72.5 °F 50.6 °F 29.84 in East 8.0 mph 11.0 mph 46 % 0.00 in 0.00 W/m2
01:11 72.5 °F 50.6 °F 29.84 in East 5.0 mph 9.0 mph 46 % 0.00 in 0.00 W/m2
01:16 72.4 °F 50.5 °F 29.84 in East 6.0 mph 7.0 mph 46 % 0.00 in 0.00 W/m2
01:21 72.4 °F 49.9 °F 29.84 in East 11.0 mph 12.0 mph 45 % 0.00 in 0.00 W/m2
01:26 72.3 °F 49.8 °F 29.84 in ESE 6.0 mph 8.0 mph 45 % 0.00 in 0.00 W/m2
01:31 72.3 °F 49.8 °F 29.84 in ESE 5.0 mph 8.0 mph 45 % 0.00 in 0.00 W/m2
01:36 72.2 °F 49.7 °F 29.84 in East 2.0 mph 7.0 mph 45 % 0.00 in 0.00 W/m2
01:41 72.2 °F 49.7 °F 29.84 in ESE 8.0 mph 9.0 mph 45 % 0.00 in 0.00 W/m2
01:46 72.2 °F 49.7 °F 29.84 in East 5.0 mph 8.0 mph 45 % 0.00 in 0.00 W/m2
01:51 72.1 °F 50.2 °F 29.84 in East 9.0 mph 9.0 mph 46 % 0.00 in 0.00 W/m2
01:56 72.1 °F 49.6 °F 29.84 in East 6.0 mph 9.0 mph 45 % 0.00 in 0.00 W/m2
02:01 72.0 °F 50.1 °F 29.84 in East 8.0 mph 8.0 mph 46 % 0.00 in 0.00 W/m2
02:06 72.0 °F 50.1 °F 29.84 in ESE 8.0 mph 8.0 mph 46 % 0.00 in 0.00 W/m2
02:07 72.0 °F 50.1 °F 29.84 in ESE 5.0 mph 8.0 mph 46 % 0.00 in 0.00 W/m2
02:12 71.9 °F 50.0 °F 29.84 in East 8.0 mph 12.0 mph 46 % 0.00 in 0.00 W/m2
02:17 71.8 °F 49.9 °F 29.84 in ESE 2.0 mph 7.0 mph 46 % 0.00 in 0.00 W/m2
02:22 71.7 °F 49.8 °F 29.84 in ESE 6.0 mph 11.0 mph 46 % 0.00 in 0.00 W/m2
02:27 71.7 °F 49.8 °F 29.83 in East 6.0 mph 7.0 mph 46 % 0.00 in 0.00 W/m2
02:32 71.7 °F 49.8 °F 29.83 in East 2.0 mph 8.0 mph 46 % 0.00 in 0.00 W/m2
02:37 71.6 °F 49.8 °F 29.83 in East 4.0 mph 8.0 mph 46 % 0.00 in 0.00 W/m2
02:42 71.6 °F 49.8 °F 29.83 in East 6.0 mph 9.0 mph 46 % 0.00 in 0.00 W/m2
02:47 71.5 °F 49.7 °F 29.83 in ESE 6.0 mph 9.0 mph 46 % 0.00 in 0.00 W/m2
02:52 71.4 °F 49.6 °F 29.83 in East 7.0 mph 9.0 mph 46 % 0.00 in 0.00 W/m2
02:57 71.4 °F 49.6 °F 29.83 in ESE 2.0 mph 12.0 mph 46 % 0.00 in 0.00 W/m2
03:02 71.3 °F 49.5 °F 29.83 in East 6.0 mph 12.0 mph 46 % 0.00 in 0.00 W/m2
03:07 71.3 °F 49.5 °F 29.83 in East 4.0 mph 11.0 mph 46 % 0.00 in 0.00 W/m2
03:12 71.2 °F 49.4 °F 29.83 in East 8.0 mph 8.0 mph 46 % 0.00 in 0.00 W/m2
03:17 71.2 °F 49.4 °F 29.83 in East 7.0 mph 11.0 mph 46 % 0.00 in 0.00 W/m2
03:22 71.1 °F 49.3 °F 29.83 in East 6.0 mph 11.0 mph 46 % 0.00 in 0.00 W/m2
03:23 71.1 °F 49.3 °F 29.83 in East 4.0 mph 11.0 mph 46 % 0.00 in 0.00 W/m2
03:28 71.1 °F 49.3 °F 29.83 in East 4.0 mph 9.0 mph 46 % 0.00 in 0.00 W/m2
03:33 71.0 °F 49.2 °F 29.83 in East 5.0 mph 8.0 mph 46 % 0.00 in 0.00 W/m2
03:38 70.9 °F 49.1 °F 29.83 in East 8.0 mph 9.0 mph 46 % 0.00 in 0.00 W/m2
03:43 70.8 °F 49.0 °F 29.83 in East 4.0 mph 8.0 mph 46 % 0.00 in 0.00 W/m2
03:48 70.7 °F 49.5 °F 29.83 in East 2.0 mph 11.0 mph 47 % 0.00 in 0.00 W/m2
03:53 70.6 °F 48.8 °F 29.82 in East 5.0 mph 7.0 mph 46 % 0.00 in 0.00 W/m2
03:58 70.5 °F 49.3 °F 29.82 in East 6.0 mph 8.0 mph 47 % 0.00 in 0.00 W/m2
04:03 70.4 °F 49.2 °F 29.82 in East 4.0 mph 8.0 mph 47 % 0.00 in 0.00 W/m2
04:08 70.3 °F 49.1 °F 29.82 in East 2.0 mph 8.0 mph 47 % 0.00 in 0.00 W/m2
04:13 70.2 °F 49.0 °F 29.82 in Calm   11.0 mph 47 % 0.00 in 0.00 W/m2
04:18 70.1 °F 49.0 °F 29.82 in East 4.0 mph 8.0 mph 47 % 0.00 in 0.00 W/m2
04:23 70.0 °F 48.9 °F 29.82 in East 7.0 mph 7.0 mph 47 % 0.00 in 0.00 W/m2
04:28 69.9 °F 48.8 °F 29.82 in East 7.0 mph 9.0 mph 47 % 0.00 in 0.00 W/m2
04:33 69.9 °F 48.8 °F 29.82 in East 1.0 mph 7.0 mph 47 % 0.00 in 0.00 W/m2
04:38 69.8 °F 48.7 °F 29.82 in East 4.0 mph 7.0 mph 47 % 0.00 in 0.00 W/m2
04:43 69.8 °F 48.7 °F 29.82 in ESE 7.0 mph 9.0 mph 47 % 0.00 in 0.00 W/m2
04:48 69.7 °F 49.2 °F 29.82 in ESE 4.0 mph 7.0 mph 48 % 0.00 in 0.00 W/m2
04:53 69.7 °F 48.6 °F 29.82 in ESE 4.0 mph 8.0 mph 47 % 0.00 in 0.00 W/m2
04:58 69.6 °F 49.1 °F 29.82 in East 4.0 mph 7.0 mph 48 % 0.00 in 0.00 W/m2
05:03 69.6 °F 48.5 °F 29.82 in East 9.0 mph 9.0 mph 47 % 0.00 in 0.00 W/m2
05:08 69.5 °F 48.4 °F 29.82 in ESE 2.0 mph 7.0 mph 47 % 0.00 in 0.00 W/m2
05:13 69.5 °F 48.4 °F 29.82 in ESE 2.0 mph 8.0 mph 47 % 0.00 in 0.00 W/m2
05:18 69.5 °F 48.4 °F 29.82 in ESE 6.0 mph 8.0 mph 47 % 0.00 in 0.00 W/m2
05:23 69.5 °F 48.4 °F 29.82 in ESE 4.0 mph 9.0 mph 47 % 0.00 in 0.00 W/m2
05:28 69.4 °F 48.9 °F 29.82 in East 1.0 mph 8.0 mph 48 % 0.00 in 0.00 W/m2
05:33 69.4 °F 48.3 °F 29.82 in East 8.0 mph 12.0 mph 47 % 0.00 in 0.00 W/m2
05:38 69.3 °F 48.2 °F 29.82 in East 2.0 mph 9.0 mph 47 % 0.00 in 0.00 W/m2
05:43 69.3 °F 48.2 °F 29.82 in East 1.0 mph 12.0 mph 47 % 0.00 in 0.00 W/m2
05:48 69.3 °F 48.2 °F 29.82 in East 6.0 mph 12.0 mph 47 % 0.00 in 0.00 W/m2
05:53 69.2 °F 48.1 °F 29.82 in East 5.0 mph 11.0 mph 47 % 0.00 in 0.00 W/m2
05:58 69.2 °F 48.1 °F 29.82 in East 7.0 mph 14.0 mph 47 % 0.00 in 0.00 W/m2
06:03 69.2 °F 48.1 °F 29.82 in ESE 7.0 mph 14.0 mph 47 % 0.00 in 0.00 W/m2
06:08 69.2 °F 48.1 °F 29.82 in Calm   11.0 mph 47 % 0.00 in 0.00 W/m2
06:13 69.2 °F 48.1 °F 29.82 in ESE 11.0 mph 13.0 mph 47 % 0.00 in 0.00 W/m2
06:18 69.2 °F 48.1 °F 29.82 in East 4.0 mph 9.0 mph 47 % 0.00 in 0.00 W/m2
06:23 69.2 °F 47.6 °F 29.83 in East 12.0 mph 12.0 mph 46 % 0.00 in 5.00 W/m2
06:28 69.2 °F 48.1 °F 29.82 in East 5.0 mph 9.0 mph 47 % 0.00 in 7.00 W/m2
06:33 69.1 °F 47.5 °F 29.83 in ESE 6.0 mph 9.0 mph 46 % 0.00 in 11.00 W/m2
06:38 69.1 °F 48.0 °F 29.83 in ESE 2.0 mph 12.0 mph 47 % 0.00 in 12.00 W/m2
06:44 69.1 °F 47.5 °F 29.83 in East 6.0 mph 11.0 mph 46 % 0.00 in 16.00 W/m2
06:49 69.0 °F 48.0 °F 29.83 in Calm   7.0 mph 47 % 0.00 in 19.00 W/m2
06:54 69.0 °F 47.4 °F 29.83 in East 1.0 mph 12.0 mph 46 % 0.00 in 26.00 W/m2
06:59 69.0 °F 48.0 °F 29.83 in East 6.0 mph 8.0 mph 47 % 0.00 in 35.00 W/m2
07:04 69.0 °F 48.0 °F 29.83 in East 12.0 mph 13.0 mph 47 % 0.00 in 46.00 W/m2
07:09 69.0 °F 48.0 °F 29.83 in East 5.0 mph 11.0 mph 47 % 0.00 in 58.00 W/m2
07:14 69.0 °F 48.0 °F 29.83 in ESE 2.0 mph 9.0 mph 47 % 0.00 in 72.00 W/m2
07:19 69.0 °F 48.0 °F 29.83 in ESE 5.0 mph 9.0 mph 47 % 0.00 in 84.00 W/m2
07:24 69.1 °F 48.0 °F 29.83 in ESE 1.0 mph 11.0 mph 47 % 0.00 in 102.00 W/m2
07:29 69.1 °F 48.0 °F 29.83 in ESE 8.0 mph 9.0 mph 47 % 0.00 in 118.00 W/m2
07:34 69.1 °F 48.0 °F 29.83 in ESE 1.0 mph 8.0 mph 47 % 0.00 in 135.00 W/m2
07:39 69.1 °F 48.6 °F 29.83 in ESE 5.0 mph 8.0 mph 48 % 0.00 in 155.00 W/m2
07:44 69.2 °F 48.7 °F 29.83 in Calm   11.0 mph 48 % 0.00 in 174.00 W/m2
07:49 69.2 °F 48.7 °F 29.83 in Calm   7.0 mph 48 % 0.00 in 197.00 W/m2
07:54 69.3 °F 49.3 °F 29.83 in ESE 1.0 mph 7.0 mph 49 % 0.00 in 214.00 W/m2
07:59 69.3 °F 49.3 °F 29.83 in ESE 6.0 mph 7.0 mph 49 % 0.00 in 232.00 W/m2
08:04 69.3 °F 49.3 °F 29.83 in Calm   8.0 mph 49 % 0.00 in 253.00 W/m2
08:09 69.4 °F 50.0 °F 29.83 in Calm   9.0 mph 50 % 0.00 in 271.00 W/m2
08:14 69.5 °F 50.1 °F 29.83 in ESE 9.0 mph 11.0 mph 50 % 0.00 in 287.00 W/m2
08:19 69.5 °F 50.1 °F 29.83 in Calm   7.0 mph 50 % 0.00 in 302.00 W/m2
08:24 69.6 °F 50.2 °F 29.83 in Calm   9.0 mph 50 % 0.00 in 320.00 W/m2
08:29 69.8 °F 50.9 °F 29.83 in Calm   7.0 mph 51 % 0.00 in 338.00 W/m2
08:34 69.9 °F 51.0 °F 29.84 in ESE 2.0 mph 7.0 mph 51 % 0.00 in 353.00 W/m2
08:39 70.1 °F 51.7 °F 29.84 in Calm   7.0 mph 52 % 0.00 in 371.00 W/m2
08:45 70.2 °F 51.8 °F 29.84 in ESE 6.0 mph 6.0 mph 52 % 0.00 in 387.00 W/m2
08:50 70.4 °F 52.5 °F 29.84 in ESE 5.0 mph 7.0 mph 53 % 0.00 in 403.00 W/m2
08:55 70.5 °F 52.6 °F 29.84 in ESE 1.0 mph 7.0 mph 53 % 0.00 in 418.00 W/m2
09:00 70.8 °F 52.8 °F 29.84 in Calm   6.0 mph 53 % 0.00 in 432.00 W/m2
09:05 71.0 °F 53.0 °F 29.84 in ESE 4.0 mph 6.0 mph 53 % 0.00 in 448.00 W/m2
09:10 71.2 °F 53.2 °F 29.84 in Calm   2.0 mph 53 % 0.00 in 464.00 W/m2
09:15 71.5 °F 53.5 °F 29.84 in ESE 1.0 mph 7.0 mph 53 % 0.00 in 482.00 W/m2
09:20 71.8 °F 53.8 °F 29.84 in Calm   7.0 mph 53 % 0.00 in 496.00 W/m2
09:25 72.2 °F 53.6 °F 29.84 in ESE 1.0 mph 5.0 mph 52 % 0.00 in 510.00 W/m2
09:30 72.6 °F 54.0 °F 29.84 in Calm   1.0 mph 52 % 0.00 in 527.00 W/m2
09:35 72.9 °F 54.3 °F 29.84 in Calm   5.0 mph 52 % 0.00 in 541.00 W/m2
09:40 73.4 °F 54.7 °F 29.84 in ESE 2.0 mph 6.0 mph 52 % 0.00 in 554.00 W/m2
09:45 73.9 °F 55.2 °F 29.84 in Calm   5.0 mph 52 % 0.00 in 568.00 W/m2
09:50 74.3 °F 54.5 °F 29.84 in Calm     50 % 0.00 in 582.00 W/m2
09:55 74.7 °F 53.7 °F 29.84 in Calm     48 % 0.00 in 594.00 W/m2
10:00 75.2 °F 53.6 °F 29.84 in Calm     47 % 0.00 in 608.00 W/m2
10:05 75.7 °F 50.4 °F 29.84 in Calm   4.0 mph 41 % 0.00 in 624.00 W/m2
10:10 76.1 °F 48.0 °F 29.84 in Calm     37 % 0.00 in 635.00 W/m2
10:15 76.5 °F 47.6 °F 29.84 in Calm   7.0 mph 36 % 0.00 in 647.00 W/m2
10:20 77.3 °F 49.7 °F 29.84 in SE 4.0 mph 4.0 mph 38 % 0.00 in 657.00 W/m2
10:25 77.8 °F 48.0 °F 29.84 in Calm   5.0 mph 35 % 0.00 in 670.00 W/m2
10:30 78.3 °F 48.4 °F 29.84 in Calm   6.0 mph 35 % 0.00 in 680.00 W/m2
10:35 78.8 °F 48.1 °F 29.84 in SSE 1.0 mph 6.0 mph 34 % 0.00 in 693.00 W/m2
10:40 79.3 °F 46.1 °F 29.84 in SSW 2.0 mph 6.0 mph 31 % 0.00 in 700.00 W/m2
10:45 79.8 °F 44.8 °F 29.84 in WNW 4.0 mph 9.0 mph 29 % 0.00 in 715.00 W/m2
10:50 80.3 °F 45.2 °F 29.84 in WNW 4.0 mph 7.0 mph 29 % 0.00 in 722.00 W/m2
10:55 80.6 °F 46.3 °F 29.84 in Calm   5.0 mph 30 % 0.00 in 731.00 W/m2
11:01 81.0 °F 46.7 °F 29.84 in WSW 1.0 mph 9.0 mph 30 % 0.00 in 744.00 W/m2
11:05 81.3 °F 46.9 °F 29.84 in Calm   6.0 mph 30 % 0.00 in 752.00 W/m2
11:10 81.5 °F 46.2 °F 29.84 in Calm   8.0 mph 29 % 0.00 in 759.00 W/m2
11:15 81.8 °F 44.6 °F 29.84 in West 7.0 mph 7.0 mph 27 % 0.00 in 768.00 W/m2
11:21 82.0 °F 45.7 °F 29.84 in West 1.0 mph 6.0 mph 28 % 0.00 in 777.00 W/m2
11:26 82.3 °F 46.0 °F 29.84 in WNW 5.0 mph 8.0 mph 28 % 0.00 in 784.00 W/m2
11:31 82.5 °F 46.1 °F 29.84 in WNW 1.0 mph 7.0 mph 28 % 0.00 in 791.00 W/m2
11:36 82.7 °F 47.2 °F 29.84 in West 3.0 mph 6.0 mph 29 % 0.00 in 798.00 W/m2
11:41 83.0 °F 46.6 °F 29.84 in Calm   8.0 mph 28 % 0.00 in 805.00 W/m2
11:46 83.2 °F 47.7 °F 29.84 in Calm   4.0 mph 29 % 0.00 in 810.00 W/m2
11:51 83.6 °F 48.0 °F 29.84 in WSW 3.0 mph 6.0 mph 29 % 0.00 in 821.00 W/m2
11:56 83.9 °F 48.3 °F 29.84 in WSW 6.0 mph 7.0 mph 29 % 0.00 in 823.00 W/m2
12:01 84.3 °F 47.7 °F 29.83 in Calm   6.0 mph 28 % 0.00 in 826.00 W/m2
12:06 84.6 °F 47.0 °F 29.84 in SSW 6.0 mph 10.0 mph 27 % 0.00 in 837.00 W/m2
12:11 85.2 °F 47.5 °F 29.83 in SSW 2.0 mph 3.0 mph 27 % 0.00 in 838.00 W/m2
12:16 85.7 °F 47.9 °F 29.83 in SW 4.0 mph 4.0 mph 27 % 0.00 in 840.00 W/m2
12:21 86.2 °F 48.3 °F 29.83 in SSW 8.0 mph 11.0 mph 27 % 0.00 in 842.00 W/m2
12:26 86.9 °F 47.9 °F 29.83 in Calm     26 % 0.00 in 849.00 W/m2
12:31 87.1 °F 49.1 °F 29.83 in West 5.0 mph 7.0 mph 27 % 0.00 in 853.00 W/m2
12:36 87.1 °F 49.1 °F 29.83 in Calm   3.0 mph 27 % 0.00 in 856.00 W/m2
12:41 87.1 °F 49.1 °F 29.82 in Calm     27 % 0.00 in 853.00 W/m2
12:46 87.2 °F 50.2 °F 29.82 in Calm     28 % 0.00 in 861.00 W/m2
12:51 87.2 °F 50.2 °F 29.82 in South 1.0 mph 6.0 mph 28 % 0.00 in 856.00 W/m2
12:56 87.2 °F 49.2 °F 29.82 in West 1.0 mph 3.0 mph 27 % 0.00 in 861.00 W/m2
13:01 87.2 °F 50.2 °F 29.82 in SW 6.0 mph 6.0 mph 28 % 0.00 in 863.00 W/m2
13:06 87.6 °F 49.5 °F 29.82 in Calm     27 % 0.00 in 863.00 W/m2
13:11 87.7 °F 47.5 °F 29.82 in WSW 6.0 mph 8.0 mph 25 % 0.00 in 863.00 W/m2
13:16 87.2 °F 49.2 °F 29.82 in Calm   4.0 mph 27 % 0.00 in 863.00 W/m2
13:21 86.7 °F 49.7 °F 29.81 in West 1.0 mph 6.0 mph 28 % 0.00 in 860.00 W/m2
13:26 86.6 °F 48.7 °F 29.82 in WNW 6.0 mph 10.0 mph 27 % 0.00 in 861.00 W/m2
13:31 86.6 °F 49.7 °F 29.81 in West 1.0 mph 1.0 mph 28 % 0.00 in 870.00 W/m2
13:36 86.8 °F 48.8 °F 29.81 in Calm   5.0 mph 27 % 0.00 in 874.00 W/m2
13:41 86.8 °F 48.8 °F 29.81 in Calm   11.0 mph 27 % 0.00 in 847.00 W/m2
13:46 86.8 °F 47.8 °F 29.81 in Calm   4.0 mph 26 % 0.00 in 863.00 W/m2
13:51 86.9 °F 47.9 °F 29.81 in WSW 7.0 mph 8.0 mph 26 % 0.00 in 842.00 W/m2
13:56 87.1 °F 49.1 °F 29.81 in SW 3.0 mph 8.0 mph 27 % 0.00 in 754.00 W/m2
14:01 87.6 °F 48.5 °F 29.81 in SW 6.0 mph 8.0 mph 26 % 0.00 in 411.00 W/m2
14:06 87.9 °F 48.8 °F 29.81 in Calm     26 % 0.00 in 432.00 W/m2
14:11 87.7 °F 49.6 °F 29.81 in WSW 6.0 mph 7.0 mph 27 % 0.00 in 849.00 W/m2
14:16 87.2 °F 48.2 °F 29.81 in Calm     26 % 0.00 in 592.00 W/m2
14:21 87.0 °F 48.0 °F 29.81 in WSW 1.0 mph 8.0 mph 26 % 0.00 in 540.00 W/m2
14:26 86.8 °F 47.8 °F 29.81 in SW 5.0 mph 11.0 mph 26 % 0.00 in 837.00 W/m2
14:31 86.8 °F 47.8 °F 29.81 in WNW 1.0 mph 8.0 mph 26 % 0.00 in 928.00 W/m2
14:36 86.7 °F 47.8 °F 29.81 in WNW 4.0 mph 4.0 mph 26 % 0.00 in 628.00 W/m2
14:41 86.0 °F 48.2 °F 29.81 in Calm   6.0 mph 27 % 0.00 in 759.00 W/m2
14:46 85.7 °F 47.9 °F 29.80 in Calm   6.0 mph 27 % 0.00 in 853.00 W/m2
14:52 85.9 °F 49.0 °F 29.81 in SW 6.0 mph 8.0 mph 28 % 0.00 in 782.00 W/m2
14:57 86.1 °F 49.2 °F 29.80 in SSW 10.0 mph 10.0 mph 28 % 0.00 in 803.00 W/m2
15:02 86.3 °F 49.4 °F 29.81 in SW 3.0 mph 11.0 mph 28 % 0.00 in 784.00 W/m2
15:07 86.6 °F 48.7 °F 29.80 in Calm   5.0 mph 27 % 0.00 in 373.00 W/m2
15:12 86.8 °F 48.8 °F 29.80 in Calm   2.0 mph 27 % 0.00 in 779.00 W/m2
15:17 87.0 °F 50.0 °F 29.80 in Calm   9.0 mph 28 % 0.00 in 777.00 W/m2
15:22 87.1 °F 50.1 °F 29.80 in SSW 2.0 mph 2.0 mph 28 % 0.00 in 592.00 W/m2
15:24 87.1 °F 50.1 °F 29.80 in SW 7.0 mph 7.0 mph 28 % 0.00 in 578.00 W/m2
15:29 87.2 °F 49.2 °F 29.80 in SW 7.0 mph 8.0 mph 27 % 0.00 in 297.00 W/m2
15:34 86.7 °F 49.7 °F 29.80 in SSW 4.0 mph 9.0 mph 28 % 0.00 in 782.00 W/m2
15:39 86.3 °F 48.4 °F 29.79 in SW 7.0 mph 9.0 mph 27 % 0.00 in 737.00 W/m2
15:44 86.2 °F 49.3 °F 29.79 in SSW 5.0 mph 8.0 mph 28 % 0.00 in 701.00 W/m2
15:49 86.2 °F 48.3 °F 29.79 in Calm   4.0 mph 27 % 0.00 in 628.00 W/m2
15:54 86.3 °F 48.4 °F 29.79 in West 4.0 mph 6.0 mph 27 % 0.00 in 619.00 W/m2
15:59 86.3 °F 48.4 °F 29.79 in SW 6.0 mph 10.0 mph 27 % 0.00 in 645.00 W/m2
16:04 86.3 °F 47.4 °F 29.79 in South 3.0 mph 9.0 mph 26 % 0.00 in 348.00 W/m2
16:09 86.3 °F 47.4 °F 29.78 in Calm   12.0 mph 26 % 0.00 in 380.00 W/m2
16:14 86.2 °F 47.3 °F 29.79 in Calm   6.0 mph 26 % 0.00 in 612.00 W/m2
16:19 86.1 °F 48.2 °F 29.78 in Calm   2.0 mph 27 % 0.00 in 621.00 W/m2
16:24 85.8 °F 48.0 °F 29.78 in Calm   6.0 mph 27 % 0.00 in 594.00 W/m2
16:29 85.7 °F 47.9 °F 29.78 in Calm   6.0 mph 27 % 0.00 in 566.00 W/m2
16:34 85.6 °F 47.8 °F 29.78 in SSW 3.0 mph 5.0 mph 27 % 0.00 in 536.00 W/m2
16:39 85.5 °F 47.7 °F 29.78 in SSW 1.0 mph 6.0 mph 27 % 0.00 in 531.00 W/m2
16:44 85.4 °F 46.7 °F 29.78 in Calm   7.0 mph 26 % 0.00 in 503.00 W/m2
16:49 85.3 °F 46.6 °F 29.78 in Calm   4.0 mph 26 % 0.00 in 504.00 W/m2
16:54 85.2 °F 48.5 °F 29.78 in Calm   8.0 mph 28 % 0.00 in 390.00 W/m2
16:59 85.1 °F 47.4 °F 29.78 in WSW 1.0 mph 8.0 mph 27 % 0.00 in 274.00 W/m2
17:00 85.1 °F 47.4 °F 29.78 in Calm   8.0 mph 27 % 0.00 in 323.00 W/m2
17:05 84.9 °F 48.2 °F 29.78 in Calm   7.0 mph 28 % 0.00 in 244.00 W/m2
17:10 84.6 °F 47.0 °F 29.78 in WSW 1.0 mph 4.0 mph 27 % 0.00 in 265.00 W/m2
17:15 84.3 °F 48.6 °F 29.78 in WSW 3.0 mph 7.0 mph 29 % 0.00 in 396.00 W/m2
17:20 84.1 °F 48.5 °F 29.78 in WSW 1.0 mph 8.0 mph 29 % 0.00 in 267.00 W/m2
17:25 83.8 °F 50.0 °F 29.78 in WSW 1.0 mph 2.0 mph 31 % 0.00 in 417.00 W/m2
17:30 83.7 °F 48.1 °F 29.78 in SW 3.0 mph 10.0 mph 29 % 0.00 in 399.00 W/m2
17:35 83.7 °F 48.1 °F 29.78 in Calm   8.0 mph 29 % 0.00 in 345.00 W/m2
17:40 83.6 °F 48.9 °F 29.78 in Calm   7.0 mph 30 % 0.00 in 271.00 W/m2
17:45 83.3 °F 48.7 °F 29.78 in WSW 3.0 mph 7.0 mph 30 % 0.00 in 323.00 W/m2
17:50 83.2 °F 48.6 °F 29.78 in Calm   6.0 mph 30 % 0.00 in 315.00 W/m2
17:55 83.1 °F 49.4 °F 29.78 in Calm   6.0 mph 31 % 0.00 in 297.00 W/m2
18:00 83.0 °F 48.4 °F 29.77 in SSW 6.0 mph 7.0 mph 30 % 0.00 in 253.00 W/m2
18:05 82.9 °F 47.4 °F 29.77 in Calm   8.0 mph 29 % 0.00 in 223.00 W/m2
18:10 82.9 °F 49.2 °F 29.77 in SSW 4.0 mph 6.0 mph 31 % 0.00 in 197.00 W/m2
18:15 82.7 °F 49.9 °F 29.77 in Calm   5.0 mph 32 % 0.00 in 221.00 W/m2
18:20 82.6 °F 50.6 °F 29.77 in Calm   5.0 mph 33 % 0.00 in 188.00 W/m2
18:25 82.3 °F 50.3 °F 29.77 in Calm   3.0 mph 33 % 0.00 in 188.00 W/m2
18:30 82.0 °F 50.1 °F 29.77 in Calm   4.0 mph 33 % 0.00 in 171.00 W/m2
18:35 81.7 °F 50.6 °F 29.77 in Calm   3.0 mph 34 % 0.00 in 146.00 W/m2
18:40 81.4 °F 50.4 °F 29.77 in Calm   2.0 mph 34 % 0.00 in 132.00 W/m2
18:45 81.1 °F 50.9 °F 29.77 in Calm     35 % 0.00 in 116.00 W/m2
18:51 80.7 °F 50.5 °F 29.77 in Calm   4.0 mph 35 % 0.00 in 93.00 W/m2
18:56 80.3 °F 50.9 °F 29.77 in Calm   5.0 mph 36 % 0.00 in 81.00 W/m2
19:01 80.0 °F 51.4 °F 29.77 in Calm     37 % 0.00 in 63.00 W/m2
19:06 79.5 °F 51.0 °F 29.77 in Calm   1.0 mph 37 % 0.00 in 51.00 W/m2
19:11 79.1 °F 51.3 °F 29.77 in Calm     38 % 0.00 in 39.00 W/m2
19:16 78.7 °F 51.7 °F 29.77 in Calm     39 % 0.00 in 30.00 W/m2
19:21 78.3 °F 52.0 °F 29.77 in Calm     40 % 0.00 in 23.00 W/m2
19:26 77.9 °F 52.3 °F 29.77 in Calm     41 % 0.00 in 18.00 W/m2
19:31 77.4 °F 52.5 °F 29.77 in Calm     42 % 0.00 in 16.00 W/m2
19:36 76.9 °F 52.7 °F 29.77 in Calm     43 % 0.00 in 12.00 W/m2
19:41 76.6 °F 52.5 °F 29.77 in Calm     43 % 0.00 in 9.00 W/m2
19:46 76.3 °F 52.2 °F 29.77 in Calm     43 % 0.00 in 5.00 W/m2
19:51 75.9 °F 52.5 °F 29.77 in Calm     44 % 0.00 in 0.00 W/m2
19:53 75.8 °F 52.4 °F 29.77 in Calm     44 % 0.00 in 0.00 W/m2
19:58 75.5 °F 52.1 °F 29.77 in Calm     44 % 0.00 in 0.00 W/m2
20:03 75.1 °F 51.7 °F 29.77 in Calm     44 % 0.00 in 0.00 W/m2
20:08 74.7 °F 52.0 °F 29.77 in Calm     45 % 0.00 in 0.00 W/m2
20:13 74.5 °F 51.8 °F 29.77 in Calm     45 % 0.00 in 0.00 W/m2
20:18 74.1 °F 51.4 °F 29.77 in Calm     45 % 0.00 in 0.00 W/m2
20:23 73.7 °F 51.1 °F 29.77 in Calm     45 % 0.00 in 0.00 W/m2
20:28 73.5 °F 51.5 °F 29.78 in Calm     46 % 0.00 in 0.00 W/m2
20:33 73.4 °F 51.4 °F 29.78 in Calm   3.0 mph 46 % 0.00 in 0.00 W/m2
20:38 73.3 °F 51.3 °F 29.78 in Calm   1.0 mph 46 % 0.00 in 0.00 W/m2
20:43 73.1 °F 51.1 °F 29.78 in Calm     46 % 0.00 in 0.00 W/m2
20:48 72.9 °F 50.9 °F 29.78 in SW 1.0 mph 4.0 mph 46 % 0.00 in 0.00 W/m2
20:53 72.7 °F 50.8 °F 29.78 in SSW 3.0 mph 4.0 mph 46 % 0.00 in 0.00 W/m2
20:58 72.6 °F 50.7 °F 29.78 in Calm   1.0 mph 46 % 0.00 in 0.00 W/m2
21:03 72.5 °F 50.6 °F 29.78 in Calm     46 % 0.00 in 0.00 W/m2
21:08 72.4 °F 50.5 °F 29.78 in SSW 3.0 mph 4.0 mph 46 % 0.00 in 0.00 W/m2
21:13 72.2 °F 50.3 °F 29.79 in Calm   5.0 mph 46 % 0.00 in 0.00 W/m2
21:19 72.1 °F 50.2 °F 29.79 in SSW 4.0 mph 4.0 mph 46 % 0.00 in 0.00 W/m2
21:24 72.0 °F 50.1 °F 29.79 in Calm   1.0 mph 46 % 0.00 in 0.00 W/m2
21:29 71.9 °F 50.0 °F 29.79 in Calm     46 % 0.00 in 0.00 W/m2
21:34 71.9 °F 50.0 °F 29.79 in Calm   3.0 mph 46 % 0.00 in 0.00 W/m2
21:39 71.8 °F 50.5 °F 29.79 in Calm   6.0 mph 47 % 0.00 in 0.00 W/m2
21:44 71.7 °F 50.4 °F 29.79 in Calm   5.0 mph 47 % 0.00 in 0.00 W/m2
21:49 71.7 °F 50.4 °F 29.79 in ESE 8.0 mph 11.0 mph 47 % 0.00 in 0.00 W/m2
21:54 71.6 °F 50.3 °F 29.79 in Calm   8.0 mph 47 % 0.00 in 0.00 W/m2
21:59 71.6 °F 50.3 °F 29.79 in ESE 5.0 mph 12.0 mph 47 % 0.00 in 0.00 W/m2
22:04 71.5 °F 50.2 °F 29.79 in ESE 1.0 mph 12.0 mph 47 % 0.00 in 0.00 W/m2
22:09 71.5 °F 50.2 °F 29.79 in ESE 4.0 mph 7.0 mph 47 % 0.00 in 0.00 W/m2
22:14 71.5 °F 49.7 °F 29.79 in ESE 6.0 mph 8.0 mph 46 % 0.00 in 0.00 W/m2
22:19 71.5 °F 49.7 °F 29.79 in Calm   13.0 mph 46 % 0.00 in 0.00 W/m2
22:24 71.5 °F 49.7 °F 29.79 in ESE 9.0 mph 11.0 mph 46 % 0.00 in 0.00 W/m2
22:29 71.5 °F 49.7 °F 29.79 in ESE 1.0 mph 12.0 mph 46 % 0.00 in 0.00 W/m2
22:34 71.6 °F 49.8 °F 29.79 in Calm   12.0 mph 46 % 0.00 in 0.00 W/m2
22:39 71.6 °F 49.2 °F 29.79 in Calm   11.0 mph 45 % 0.00 in 0.00 W/m2
22:44 71.6 °F 49.2 °F 29.79 in ESE 5.0 mph 9.0 mph 45 % 0.00 in 0.00 W/m2
22:49 71.6 °F 49.2 °F 29.79 in East 5.0 mph 12.0 mph 45 % 0.00 in 0.00 W/m2
22:54 71.7 °F 49.2 °F 29.79 in East 5.0 mph 11.0 mph 45 % 0.00 in 0.00 W/m2
22:59 71.7 °F 49.2 °F 29.79 in East 12.0 mph 12.0 mph 45 % 0.00 in 0.00 W/m2
23:04 71.7 °F 49.2 °F 29.79 in East 7.0 mph 12.0 mph 45 % 0.00 in 0.00 W/m2
23:09 71.7 °F 49.2 °F 29.79 in East 1.0 mph 11.0 mph 45 % 0.00 in 0.00 W/m2
23:11 71.7 °F 49.2 °F 29.79 in Calm   14.0 mph 45 % 0.00 in 0.00 W/m2
23:16 71.7 °F 49.2 °F 29.79 in East 4.0 mph 13.0 mph 45 % 0.00 in 0.00 W/m2
23:21 71.6 °F 48.6 °F 29.79 in East 7.0 mph 12.0 mph 44 % 0.00 in 0.00 W/m2
23:26 71.6 °F 48.6 °F 29.79 in ESE 5.0 mph 9.0 mph 44 % 0.00 in 0.00 W/m2
23:31 71.5 °F 48.5 °F 29.79 in East 8.0 mph 12.0 mph 44 % 0.00 in 0.00 W/m2
23:36 71.5 °F 48.5 °F 29.79 in ESE 8.0 mph 9.0 mph 44 % 0.00 in 0.00 W/m2
23:41 71.5 °F 48.5 °F 29.79 in Calm   2.0 mph 44 % 0.00 in 0.00 W/m2
23:46 71.5 °F 48.5 °F 29.79 in East 4.0 mph 13.0 mph 44 % 0.00 in 0.00 W/m2
23:51 71.5 °F 48.5 °F 29.79 in ESE 4.0 mph 12.0 mph 44 % 0.00 in 0.00 W/m2
23:53 71.5 °F 48.5 °F 29.79 in ESE 5.0 mph 12.0 mph 44 % 0.00 in 0.00 W/m2
23:58 71.5 °F 48.5 °F 29.79 in ESE 6.0 mph 11.0 mph 44 % 0.00 in 0.00 W/m2
Juneau County Weather
Compliments of Weather Underground - 4.5 mb
 WU-history PHP script courtesy of   Juneau County Weather.
powered by Cumulus v1.9.3 (1059)
Ambient Weather VWS v14.00
Top Contact Website Map Copyright © 2007 - 2018 Foresthillweather.com Never base important decisions on this or any weather information obtained from the Internet